Location: Beadle
(51.4667°N, 109.0000°W)
Time: 05:51:03
(UTC+00:00)

Altair - Pass Details

Date: 03 June 2022
Orbit: 1501 x 1682 km, 47.2° (Epoch: 30 June)

Event Time Altitude Azimuth Distance (km) Brightness Sun altitude
Rises 23:49:50 0° 256° (WSW) 4,829 11.2 30.3°
Reaches altitude 10° 23:52:55 10° 254° (WSW) 3,866 11.1 29.8°
Maximum altitude 00:02:46 70° 174° (S) 1,757 8.3 28.2°
Drops below altitude 10° 00:12:50 10° 94° (E) 3,947 9.2 26.7°
Sets 00:16:01 0° 92° (E) 4,935 9.6 26.2°
